Location: Baili�vre
(50.0696°N, 4.2409°E)
Time: 03:38:09
(UTC+00:00)

USA 267 - Pass Details

Date: 08 August 2020
Orbit: 1102 x 1106 km, 123.0° (Epoch: 18 September)

Event Time Altitude Azimuth Distance (km) Brightness Sun altitude
Rises 19:39:32 0° 57° (ENE) 3,929 5.9 -4.5°
Reaches altitude 10° 19:42:12 10° 65° (ENE) 2,968 5.2 -4.9°
Maximum altitude 19:48:20 41° 134° (SE) 1,541 3.6 -5.7°
Drops below altitude 10° 19:54:27 10° 203° (SSW) 2,957 5.4 -6.5°
Sets 19:57:06 0° 211° (SSW) 3,912 6.1 -6.8°
